Location: Casa Branca
(20.1000°S, 44.0500°W)
Time: 23:00:45
(UTC+00:00)

Daily predictions for brighter satellites

Satellite Brightness Start Highest point End
(mag) Time Altitude Azimuth Time Altitude Azimuth Time Altitude Azimuth
CZ-4B R/B 4.3 20:40:17 10° SE 20:44:43 25° E 20:49:09 10° NNE
Cosmos 2074 Rocket 4.2 20:43:21 10° NNE 20:49:19 52° E 20:55:21 10° SSE
FengYun 1-2 T 4.4 20:48:17 10° SSE 20:53:43 54° E 20:59:09 10° N
Cosmos 1939 Rocket 3.5 20:50:19 10° SSE 20:54:01 36° E 20:57:37 10° NNE
SMAP 3.1 20:49:26 10° SSE 20:54:04 62° E 20:58:39 10° N
Cosmos 44 Rocket 3.2 20:52:32 10° NNW 20:57:18 73° ENE 21:01:59 10° SSE
CORIOLIS 4.3 20:52:39 10° SSE 20:57:58 54° E 21:03:13 10° N
Iridium 4 Rocket 3.8 20:54:47 10° S 21:00:44 74° E 21:06:20 10° N
CZ-2C R/B 3.2 21:01:05 10° WSW 21:04:33 22° SSW 21:08:03 10° SSE
Cosmos 1743 3.5 21:02:15 10° NNE 21:05:39 31° E 21:09:06 10° SSE
H-2A R/B 4.1 21:03:02 10° NNW 21:06:43 31° W 21:10:31 10° SW
Cosmos 2242 Rocket 3.8 21:03:13 10° S 21:07:37 50° E 21:12:01 10° NNE
USA 215 3.8 21:02:11 10° ENE 21:08:01 36° SE 21:13:53 10° SSW
Meteor 2-4 Rocket 3.8 21:02:25 10° S 21:08:07 86° W 21:13:35 10° N
deb Chang Zheng 4 4.4 21:05:43 10° S 21:09:55 52° WSW 21:14:03 10° NNW
DMSP B5D2-2 4.3 21:07:57 10° NNE 21:12:55 46° ESE 21:17:55 10° S
Cosmos 1869 Rocket 3.7 21:08:56 10° N 21:13:24 84° W 21:17:55 10° S
BREEZE M DEB (TANK) 3.2 21:11:32 10° SW 21:17:50 46° SE 21:19:54 16° ENE
Radarsat Rocket 4.3 21:11:45 10° SSE 21:18:14 87° ENE 21:25:33 10° NNW
Cosmos 1048 Rocket 4.3 21:13:28 10° N 21:18:19 44° E 21:22:55 12° SSE
CZ-2C R/B 3.0 21:14:52 10° N 21:20:17 69° WNW 21:25:38 10° SSW
Cosmos 2056 Rocket 4.0 21:17:09 10° S 21:21:46 33° ESE 21:26:20 10° NE
Cosmos 2154 Rocket 3.9 21:18:23 10° N 21:24:32 68° E 21:30:46 10° S
CZ-4B R/B 3.1 21:21:57 10° NNW 21:25:00 36° W 21:28:08 10° SSW
Cosmos 2184 Rocket 4.3 21:18:55 10° N 21:25:12 74° W 21:31:36 10° S
Meteor 1-11 Rocket 4.4 21:20:50 10° NNW 21:26:12 55° W 21:31:41 10° S
Cosmos 1733 Rocket 3.7 21:23:40 10° NNE 21:27:44 35° E 21:30:08 20° SE
SL-27 R/B 2.6 21:24:23 10° NNW 21:27:57 79° WSW 21:31:21 11° S
Okean 1-7 3.0 21:24:36 10° S 21:28:56 88° W 21:33:16 10° N
ISS -3.7 21:27:21 10° NNW 21:30:40 60° NE 21:31:52 35° ESE
Okean 3 3.7 21:26:38 10° SSE 21:30:40 42° E 21:34:39 10° NNE
Centaur AC-119 2.3 21:29:59 10° W 21:32:07 45° S 21:33:27 29° SE
Cosmos 1066 Rocket 4.3 21:27:39 10° S 21:33:13 54° E 21:38:36 10° NNE
X-37B 3.2 21:32:07 10° S 21:32:14 10° S 21:32:14 10° S
H-2A R/B 2.5 21:31:54 14° SSE 21:35:39 65° ENE 21:40:02 10° N
GPS 2-15 Rocket1 4.2 21:33:09 10° NW 21:37:21 33° NNE 21:39:36 22° ENE
Cosmos 1371 Rocket 3.9 21:33:16 10° S 21:38:30 62° ESE 21:43:36 10° NNE
NOSS 3-2 (C) 4.1 21:34:34 10° SW 21:39:59 50° WNW 21:45:04 10° N
SL-16 R/B 2.7 21:35:05 10° S 21:40:13 34° ESE 21:45:19 10° NE
Nadezhda 3 Rocket 4.2 21:36:51 10° SSE 21:42:46 44° E 21:48:34 10° NNE
Cosmos 2322 Rocket 3.5 21:38:57 10° SSE 21:41:18 20° SSE 21:41:18 20° SSE
Genesis I 4.0 21:40:24 10° SW 21:44:01 50° WNW 21:47:37 10° N
ATLAS 3B R/B 4.1 21:42:40 10° S 21:44:59 17° SSE 21:44:59 17° SSE
Cosmos 1378 3.5 21:44:08 10° SSW 21:47:52 65° W 21:51:33 10° N
YAOGAN 3 4.4 21:47:24 25° SSE 21:49:56 77° E 21:54:17 10° N
ATLAS 3B CENTAUR R/B 4.3 21:40:37 10° WSW 21:50:31 87° NNW 22:10:30 10° ENE
Cosmos 1689 Rocket 2.1 21:48:53 10° N 21:51:39 71° WNW 21:51:39 71° WNW
Cosmos 494 Rocket 3.9 21:52:39 10° NNW 21:57:47 89° ENE 22:00:31 29° SSE
COSMOS 2455 4.0 21:55:11 10° NNE 21:58:50 24° NE 21:58:50 24° NE
Delta 168 3.0 21:58:16 10° WSW 22:00:34 44° WSW 22:00:34 44° WSW
CZ-2D R/B 4.4 21:58:39 15° S 22:01:30 42° WSW 22:05:06 10° NNW
Okean O Rocket 2.7 21:57:48 10° S 22:02:02 44° WSW 22:06:12 10° NNW
Cosmos 1980 Rocket 4.3 21:57:57 10° SW 22:02:39 27° WNW 22:07:19 10° NNW
CZ-4 R/B 4.5 22:05:28 50° S 22:06:29 77° W 22:10:37 10° NNW
ARGOS 3.2 22:08:47 52° ENE 22:08:47 52° ENE 22:13:51 10° N
H-2A R/B 1.9 22:07:31 35° S 22:09:42 85° W 22:14:49 10° NNW
SAR-Lupe-4 4.0 22:07:03 10° N 22:10:14 58° NW 22:10:14 58° NW
SL-4 R/B 4.2 22:07:23 10° SSW 22:09:04 20° S 22:09:04 20° S
Delta 198 3.5 22:08:33 10° WSW 22:11:55 65° WNW 22:11:55 65° WNW
Lacrosse 5 rocket 2.5 22:13:01 10° SW 22:17:09 42° WNW 22:19:42 19° N
COSMOS 2487 4.3 22:15:40 10° NNW 22:17:13 25° NNW 22:17:13 25° NNW
Skynet4D Del rocket 4.0 22:15:35 10° NW 22:21:37 52° NNE 22:21:54 52° NE
Cosmos 1238 Rocket 4.1 22:20:03 10° NNW 22:22:11 34° NW 22:22:11 34° NW
Mugunghwa Rocket 4.4 22:18:55 10° W 22:26:03 51° S 22:26:42 50° SSE
Cosmos 2218 Rocket 3.9 22:26:19 10° N 22:32:18 77° NE 22:32:18 77° NE
Cosmos 1975 4.4 22:29:12 10° NNW 22:31:39 33° NW 22:31:39 33° NW
CZ-3B Rocket 3.3 22:04:26 10° W 22:46:47 84° N 22:47:57 69° ENE
USA 215 4.3 22:44:41 10° NNE 22:50:46 42° NW 22:56:55 10° SW
CZ-4 R/B 4.2 22:54:43 15° NW 22:54:43 15° NW 22:55:30 10° NW
